Time,TemperatureF,DewpointF,PressureIn,WindDirection,WindDirectionDegrees,WindSpeedMPH,WindSpeedGustMPH,Humidity,HourlyPrecipIn,Conditions,Clouds,dailyrainin,SoftwareType,DateUTC
2013-03-11 00:02:00,40.0,39.0,29.68,East,100,0.0,1.0,96,0.00,,,0.56,,2013-03-11 04:02:00,
2013-03-11 00:12:00,40.0,39.0,29.68,East,100,0.0,1.0,96,0.00,,,0.56,,2013-03-11 04:12:00,
2013-03-11 00:22:00,39.0,38.0,29.68,East,100,0.0,2.0,96,0.00,,,0.56,,2013-03-11 04:22:00,
2013-03-11 00:32:00,38.0,37.0,29.67,East,100,0.0,1.0,96,0.00,,,0.56,,2013-03-11 04:32:00,
2013-03-11 00:43:00,38.0,37.0,29.67,East,100,0.0,1.0,96,0.00,,,0.56,,2013-03-11 04:43:00,
2013-03-11 00:53:00,38.0,37.0,29.67,East,100,0.0,2.0,96,0.00,,,0.56,,2013-03-11 04:53:00,
2013-03-11 01:03:00,39.0,38.0,29.68,East,100,0.0,1.0,97,0.00,,,0.56,,2013-03-11 05:03:00,
2013-03-11 01:12:00,39.0,38.0,29.68,East,100,0.0,1.0,97,0.00,,,0.56,,2013-03-11 05:12:00,
2013-03-11 01:22:00,38.0,37.0,29.68,East,100,0.0,1.0,97,0.01,,,0.57,,2013-03-11 05:22:00,
2013-03-11 01:32:00,38.0,37.0,29.67,East,100,0.0,2.0,97,0.02,,,0.58,,2013-03-11 05:32:00,
2013-03-11 01:43:00,38.0,37.0,29.67,East,100,0.0,2.0,97,0.02,,,0.58,,2013-03-11 05:43:00,
2013-03-11 01:52:00,38.0,37.0,29.67,East,100,0.0,1.0,97,0.02,,,0.58,,2013-03-11 05:52:00,
2013-03-11 02:02:00,38.0,37.0,29.67,East,100,0.0,0.0,97,0.02,,,0.58,,2013-03-11 06:02:00,
2013-03-11 02:12:00,38.0,37.0,29.67,East,100,0.0,0.0,97,0.02,,,0.58,,2013-03-11 06:12:00,
2013-03-11 02:22:00,38.0,37.0,29.67,East,100,0.0,1.0,97,0.01,,,0.58,,2013-03-11 06:22:00,
2013-03-11 02:32:00,39.0,38.0,29.66,East,100,0.0,1.0,97,0.00,,,0.58,,2013-03-11 06:32:00,
2013-03-11 02:42:00,39.0,38.0,29.66,East,100,0.0,1.0,97,0.00,,,0.58,,2013-03-11 06:42:00,
2013-03-11 02:53:00,40.0,39.0,29.65,East,100,0.0,2.0,97,0.00,,,0.58,,2013-03-11 06:53:00,
2013-03-11 03:03:00,42.0,41.0,29.65,SW,232,0.0,3.0,98,0.01,,,0.59,,2013-03-11 07:03:00,
2013-03-11 03:12:00,42.0,41.0,29.65,SW,232,0.0,3.0,98,0.01,,,0.59,,2013-03-11 07:12:00,
2013-03-11 03:22:00,44.0,43.0,29.65,WSW,240,3.0,5.0,98,0.01,,,0.59,,2013-03-11 07:22:00,
2013-03-11 03:32:00,45.0,44.0,29.64,West,267,0.0,12.0,98,0.01,,,0.59,,2013-03-11 07:32:00,
2013-03-11 03:42:00,45.0,44.0,29.64,West,267,0.0,12.0,98,0.01,,,0.59,,2013-03-11 07:42:00,
2013-03-11 03:52:00,45.0,44.0,29.63,West,267,1.0,2.0,98,0.01,,,0.59,,2013-03-11 07:52:00,
2013-03-11 04:02:00,43.0,42.0,29.63,West,267,0.0,1.0,97,0.00,,,0.59,,2013-03-11 08:02:00,
2013-03-11 04:12:00,43.0,42.0,29.63,West,267,0.0,1.0,97,0.00,,,0.59,,2013-03-11 08:12:00,
2013-03-11 04:22:00,42.0,41.0,29.62,West,267,0.0,1.0,96,0.00,,,0.59,,2013-03-11 08:22:00,
2013-03-11 04:32:00,41.0,40.0,29.62,West,267,0.0,0.0,96,0.00,,,0.59,,2013-03-11 08:32:00,
2013-03-11 04:42:00,41.0,40.0,29.62,West,267,0.0,0.0,96,0.00,,,0.59,,2013-03-11 08:42:00,
2013-03-11 04:52:00,41.0,40.0,29.61,West,267,0.0,2.0,96,0.00,,,0.59,,2013-03-11 08:52:00,
2013-03-11 05:02:00,40.0,39.0,29.61,West,267,1.0,2.0,97,0.00,,,0.59,,2013-03-11 09:02:00,
2013-03-11 05:12:00,40.0,39.0,29.61,West,267,1.0,2.0,97,0.00,,,0.59,,2013-03-11 09:12:00,
2013-03-11 05:23:00,40.0,39.0,29.60,WNW,291,0.0,4.0,97,0.00,,,0.59,,2013-03-11 09:23:00,
2013-03-11 05:32:00,40.0,39.0,29.59,WNW,291,0.0,1.0,97,0.01,,,0.60,,2013-03-11 09:32:00,
2013-03-11 05:42:00,40.0,39.0,29.59,WNW,291,0.0,1.0,97,0.01,,,0.60,,2013-03-11 09:42:00,
2013-03-11 05:52:00,41.0,40.0,29.59,WNW,291,1.0,2.0,97,0.01,,,0.60,,2013-03-11 09:52:00,
2013-03-11 06:02:00,42.0,41.0,29.59,WNW,291,0.0,1.0,97,0.01,,,0.60,,2013-03-11 10:02:00,
2013-03-11 06:12:00,42.0,41.0,29.59,WNW,291,0.0,1.0,97,0.01,,,0.60,,2013-03-11 10:12:00,
2013-03-11 06:22:00,43.0,42.0,29.60,WNW,291,0.0,3.0,98,0.01,,,0.60,,2013-03-11 10:22:00,
2013-03-11 06:32:00,43.0,42.0,29.59,West,281,0.0,3.0,98,0.00,,,0.60,,2013-03-11 10:32:00,
2013-03-11 06:42:00,43.0,42.0,29.59,West,281,0.0,3.0,98,0.00,,,0.60,,2013-03-11 10:42:00,
2013-03-11 06:52:00,44.0,43.0,29.59,WNW,282,0.0,3.0,97,0.00,,,0.60,,2013-03-11 10:52:00,
2013-03-11 07:02:00,44.0,43.0,29.59,West,274,0.0,5.0,97,0.00,,,0.60,,2013-03-11 11:02:00,
2013-03-11 07:12:00,44.0,43.0,29.59,West,274,0.0,5.0,97,0.00,,,0.60,,2013-03-11 11:12:00,
2013-03-11 07:22:00,44.0,43.0,29.59,West,274,0.0,1.0,97,0.00,,,0.60,,2013-03-11 11:22:00,
2013-03-11 07:33:00,44.0,43.0,29.59,West,274,0.0,2.0,97,0.00,,,0.60,,2013-03-11 11:33:00,
2013-03-11 07:42:00,44.0,43.0,29.59,West,274,0.0,2.0,97,0.00,,,0.60,,2013-03-11 11:42:00,
2013-03-11 07:53:00,44.0,43.0,29.59,West,274,0.0,1.0,97,0.00,,,0.60,,2013-03-11 11:53:00,
2013-03-11 08:02:00,44.0,43.0,29.59,West,274,0.0,2.0,97,0.00,,,0.54,,2013-03-11 12:02:00,
2013-03-11 08:12:00,44.0,43.0,29.59,West,274,0.0,2.0,97,0.00,,,0.54,,2013-03-11 12:12:00,
2013-03-11 08:22:00,42.0,41.0,29.61,West,274,1.0,3.0,97,0.00,,,0.54,,2013-03-11 12:22:00,
2013-03-11 08:32:00,43.0,42.0,29.62,West,274,0.0,3.0,97,0.00,,,0.54,,2013-03-11 12:32:00,
2013-03-11 08:43:00,43.0,42.0,29.62,West,274,0.0,3.0,97,0.00,,,0.54,,2013-03-11 12:43:00,
2013-03-11 08:53:00,43.0,42.0,29.62,West,274,0.0,2.0,97,0.00,,,0.54,,2013-03-11 12:53:00,
2013-03-11 09:02:00,43.0,42.0,29.61,West,274,0.0,2.0,97,0.00,,,0.50,,2013-03-11 13:02:00,
2013-03-11 09:12:00,43.0,42.0,29.61,West,274,0.0,2.0,97,0.00,,,0.50,,2013-03-11 13:12:00,
2013-03-11 09:22:00,42.0,41.0,29.60,West,274,0.0,2.0,97,0.00,,,0.50,,2013-03-11 13:22:00,
2013-03-11 09:32:00,41.0,40.0,29.61,West,274,0.0,1.0,96,0.00,,,0.50,,2013-03-11 13:32:00,
2013-03-11 09:42:00,41.0,40.0,29.61,West,274,0.0,1.0,96,0.00,,,0.50,,2013-03-11 13:42:00,
2013-03-11 09:53:00,40.0,39.0,29.62,West,274,0.0,1.0,97,0.00,,,0.50,,2013-03-11 13:53:00,
2013-03-11 10:02:00,40.0,39.0,29.61,West,274,0.0,0.0,97,0.00,,,0.47,,2013-03-11 14:02:00,
2013-03-11 10:12:00,40.0,39.0,29.61,West,274,0.0,0.0,97,0.00,,,0.47,,2013-03-11 14:12:00,
2013-03-11 10:22:00,40.0,39.0,29.60,West,274,0.0,0.0,97,0.00,,,0.47,,2013-03-11 14:22:00,
2013-03-11 10:33:00,40.0,39.0,29.59,West,274,0.0,2.0,97,0.00,,,0.47,,2013-03-11 14:33:00,
2013-03-11 10:42:00,40.0,39.0,29.59,West,274,0.0,2.0,97,0.00,,,0.47,,2013-03-11 14:42:00,
2013-03-11 10:53:00,40.0,39.0,29.59,West,275,0.0,2.0,98,0.00,,,0.47,,2013-03-11 14:53:00,
2013-03-11 11:02:00,41.0,40.0,29.59,West,275,0.0,0.0,97,0.00,,,0.46,,2013-03-11 15:02:00,
2013-03-11 11:13:00,41.0,40.0,29.59,West,275,0.0,0.0,97,0.00,,,0.46,,2013-03-11 15:13:00,
2013-03-11 11:23:00,41.0,40.0,29.59,West,275,0.0,0.0,97,0.00,,,0.46,,2013-03-11 15:23:00,
2013-03-11 11:32:00,41.0,40.0,29.58,West,275,0.0,0.0,98,0.00,,,0.46,,2013-03-11 15:32:00,
2013-03-11 11:42:00,41.0,40.0,29.58,West,275,0.0,0.0,98,0.00,,,0.46,,2013-03-11 15:42:00,
2013-03-11 11:53:00,42.0,41.0,29.57,West,275,0.0,0.0,98,0.00,,,0.46,,2013-03-11 15:53:00,
2013-03-11 12:02:00,41.0,40.0,29.56,West,275,0.0,1.0,98,0.00,,,0.46,,2013-03-11 16:02:00,
2013-03-11 12:13:00,41.0,40.0,29.56,West,275,0.0,1.0,98,0.00,,,0.46,,2013-03-11 16:13:00,
2013-03-11 12:22:00,42.0,41.0,29.55,West,275,1.0,2.0,98,0.00,,,0.46,,2013-03-11 16:22:00,
2013-03-11 12:32:00,42.0,41.0,29.55,West,275,0.0,0.0,98,0.00,,,0.46,,2013-03-11 16:32:00,
2013-03-11 12:43:00,42.0,41.0,29.55,West,275,0.0,0.0,98,0.00,,,0.46,,2013-03-11 16:43:00,
2013-03-11 12:52:00,42.0,41.0,29.54,West,275,0.0,0.0,98,0.00,,,0.46,,2013-03-11 16:52:00,
2013-03-11 13:02:00,42.0,41.0,29.53,West,275,0.0,0.0,98,0.01,,,0.42,,2013-03-11 17:02:00,
2013-03-11 13:15:00,42.0,41.0,29.53,West,275,0.0,0.0,98,0.01,,,0.42,,2013-03-11 17:15:00,
2013-03-11 13:27:00,42.0,41.0,29.53,West,275,0.0,0.0,98,0.01,,,0.42,,2013-03-11 17:27:00,
2013-03-11 13:42:00,43.0,42.0,29.52,West,275,0.0,0.0,98,0.01,,,0.42,,2013-03-11 17:42:00,
2013-03-11 13:53:00,44.0,43.0,29.51,West,275,0.0,3.0,98,0.01,,,0.42,,2013-03-11 17:53:00,
2013-03-11 14:02:00,44.0,43.0,29.50,West,275,0.0,0.0,98,0.00,,,0.35,,2013-03-11 18:02:00,
2013-03-11 14:12:00,44.0,43.0,29.50,West,275,0.0,0.0,98,0.00,,,0.35,,2013-03-11 18:12:00,
2013-03-11 14:23:00,44.0,43.0,29.50,West,275,0.0,0.0,98,0.00,,,0.35,,2013-03-11 18:23:00,
2013-03-11 14:32:00,45.0,44.0,29.50,West,275,0.0,0.0,98,0.01,,,0.36,,2013-03-11 18:32:00,
2013-03-11 14:42:00,45.0,44.0,29.50,West,275,0.0,0.0,98,0.01,,,0.36,,2013-03-11 18:42:00,
2013-03-11 14:53:00,45.0,44.0,29.48,West,275,0.0,0.0,98,0.02,,,0.37,,2013-03-11 18:53:00,
2013-03-11 15:02:00,45.0,44.0,29.48,West,275,0.0,2.0,98,0.03,,,0.38,,2013-03-11 19:02:00,
2013-03-11 15:12:00,45.0,44.0,29.48,West,275,0.0,2.0,98,0.03,,,0.38,,2013-03-11 19:12:00,
2013-03-11 15:23:00,45.0,44.0,29.47,WNW,286,3.0,9.0,98,0.06,,,0.41,,2013-03-11 19:23:00,
2013-03-11 15:33:00,46.0,45.0,29.45,West,277,0.0,4.0,98,0.06,,,0.42,,2013-03-11 19:33:00,
2013-03-11 15:42:00,46.0,45.0,29.45,West,277,0.0,4.0,98,0.06,,,0.42,,2013-03-11 19:42:00,
2013-03-11 15:53:00,45.0,44.0,29.45,West,279,5.0,9.0,98,0.06,,,0.42,,2013-03-11 19:53:00,
2013-03-11 16:02:00,44.0,43.0,29.45,NW,326,3.0,8.0,98,0.04,,,0.41,,2013-03-11 20:02:00,
2013-03-11 16:12:00,44.0,43.0,29.45,NW,326,3.0,8.0,98,0.04,,,0.41,,2013-03-11 20:12:00,
2013-03-11 16:22:00,44.0,43.0,29.45,WNW,300,3.0,7.0,97,0.01,,,0.41,,2013-03-11 20:22:00,
2013-03-11 16:32:00,43.0,42.0,29.45,NW,321,4.0,5.0,97,0.00,,,0.41,,2013-03-11 20:32:00,
2013-03-11 16:43:00,43.0,42.0,29.45,NW,321,4.0,5.0,97,0.00,,,0.41,,2013-03-11 20:43:00,
2013-03-11 16:53:00,43.0,42.0,29.43,North,350,0.0,10.0,97,0.00,,,0.41,,2013-03-11 20:53:00,
2013-03-11 17:03:00,43.0,42.0,29.45,WNW,282,0.0,4.0,97,0.00,,,0.38,,2013-03-11 21:03:00,
2013-03-11 17:13:00,43.0,42.0,29.45,WNW,282,0.0,4.0,97,0.00,,,0.38,,2013-03-11 21:13:00,
2013-03-11 17:22:00,43.0,42.0,29.46,WNW,291,3.0,11.0,97,0.00,,,0.38,,2013-03-11 21:22:00,
2013-03-11 17:32:00,42.0,41.0,29.47,West,276,6.0,10.0,97,0.00,,,0.38,,2013-03-11 21:32:00,
2013-03-11 17:44:00,42.0,41.0,29.47,West,276,6.0,10.0,97,0.00,,,0.38,,2013-03-11 21:44:00,
2013-03-11 17:53:00,41.0,40.0,29.48,West,259,8.0,19.0,95,0.00,,,0.38,,2013-03-11 21:53:00,
2013-03-11 18:03:00,40.0,39.0,29.49,NNW,344,5.0,16.0,95,0.00,,,0.38,,2013-03-11 22:03:00,
2013-03-11 18:12:00,40.0,39.0,29.49,NNW,344,5.0,16.0,95,0.00,,,0.38,,2013-03-11 22:12:00,
2013-03-11 18:22:00,40.0,38.0,29.49,WNW,295,6.0,15.0,94,0.00,,,0.38,,2013-03-11 22:22:00,
2013-03-11 18:32:00,39.0,37.0,29.51,West,260,5.0,14.0,93,0.00,,,0.38,,2013-03-11 22:32:00,
2013-03-11 18:43:00,39.0,37.0,29.51,West,260,5.0,14.0,93,0.00,,,0.38,,2013-03-11 22:43:00,
2013-03-11 18:53:00,39.0,37.0,29.51,NNW,329,4.0,16.0,94,0.00,,,0.38,,2013-03-11 22:53:00,
2013-03-11 19:03:00,38.0,36.0,29.52,West,269,4.0,13.0,94,0.00,,,0.38,,2013-03-11 23:03:00,
2013-03-11 19:12:00,38.0,36.0,29.52,West,269,4.0,13.0,94,0.00,,,0.38,,2013-03-11 23:12:00,
2013-03-11 19:22:00,37.0,35.0,29.52,WSW,249,1.0,15.0,94,0.00,,,0.38,,2013-03-11 23:22:00,
2013-03-11 19:32:00,37.0,35.0,29.53,WNW,296,5.0,13.0,94,0.00,,,0.38,,2013-03-11 23:32:00,
2013-03-11 19:43:00,37.0,35.0,29.53,WNW,296,5.0,13.0,94,0.00,,,0.38,,2013-03-11 23:43:00,
2013-03-11 19:54:00,36.0,34.0,29.53,West,275,4.0,11.0,94,0.00,,,0.38,,2013-03-11 23:54:00,
2013-03-11 20:02:00,36.0,34.0,29.53,WNW,291,3.0,15.0,94,0.01,,,0.24,,2013-03-12 00:02:00,
2013-03-11 20:12:00,36.0,34.0,29.53,WNW,291,3.0,15.0,94,0.01,,,0.24,,2013-03-12 00:12:00,
2013-03-11 20:23:00,36.0,35.0,29.54,WSW,251,3.0,10.0,95,0.01,,,0.24,,2013-03-12 00:23:00,
2013-03-11 20:33:00,35.0,34.0,29.53,NW,319,3.0,9.0,95,0.01,,,0.24,,2013-03-12 00:33:00,
2013-03-11 20:42:00,35.0,34.0,29.53,NW,319,3.0,9.0,95,0.01,,,0.24,,2013-03-12 00:42:00,
2013-03-11 20:54:00,35.0,34.0,29.53,WNW,290,3.0,8.0,95,0.01,,,0.24,,2013-03-12 00:54:00,
2013-03-11 21:02:00,35.0,34.0,29.54,NW,313,0.0,7.0,95,0.00,,,0.21,,2013-03-12 01:02:00,
2013-03-11 21:12:00,35.0,34.0,29.54,NW,313,0.0,7.0,95,0.00,,,0.21,,2013-03-12 01:12:00,
2013-03-11 21:22:00,35.0,34.0,29.54,WNW,302,3.0,5.0,95,0.00,,,0.21,,2013-03-12 01:22:00,
2013-03-11 21:33:00,34.0,33.0,29.55,NW,304,1.0,4.0,95,0.00,,,0.21,,2013-03-12 01:33:00,
2013-03-11 21:42:00,34.0,33.0,29.55,NW,304,1.0,4.0,95,0.00,,,0.21,,2013-03-12 01:42:00,
2013-03-11 21:53:00,34.0,33.0,29.56,NNW,346,2.0,6.0,95,0.00,,,0.21,,2013-03-12 01:53:00,
2013-03-11 22:02:00,34.0,33.0,29.56,WNW,290,0.0,4.0,95,0.00,,,0.15,,2013-03-12 02:02:00,
2013-03-11 22:12:00,34.0,33.0,29.56,WNW,290,0.0,4.0,95,0.00,,,0.15,,2013-03-12 02:12:00,
2013-03-11 22:22:00,34.0,33.0,29.57,NW,318,1.0,8.0,95,0.00,,,0.15,,2013-03-12 02:22:00,
2013-03-11 22:32:00,34.0,33.0,29.58,NW,311,2.0,5.0,95,0.00,,,0.15,,2013-03-12 02:32:00,
2013-03-11 22:42:00,34.0,33.0,29.58,NW,311,2.0,5.0,95,0.00,,,0.15,,2013-03-12 02:42:00,
2013-03-11 22:52:00,34.0,33.0,29.59,NW,308,2.0,7.0,95,0.00,,,0.15,,2013-03-12 02:52:00,
2013-03-11 23:02:00,34.0,32.0,29.60,West,273,1.0,7.0,94,0.00,,,0.13,,2013-03-12 03:02:00,
2013-03-11 23:12:00,34.0,32.0,29.60,West,273,1.0,7.0,94,0.00,,,0.13,,2013-03-12 03:12:00,
2013-03-11 23:22:00,34.0,32.0,29.60,NW,315,2.0,5.0,94,0.00,,,0.13,,2013-03-12 03:22:00,
2013-03-11 23:32:00,34.0,32.0,29.62,West,261,1.0,5.0,94,0.00,,,0.13,,2013-03-12 03:32:00,
2013-03-11 23:42:00,34.0,32.0,29.62,West,261,1.0,5.0,94,0.00,,,0.13,,2013-03-12 03:42:00,
2013-03-11 23:53:00,34.0,32.0,29.62,NW,311,1.0,4.0,94,0.00,,,0.13,,2013-03-12 03:53:00,